| time (UTC) | temp F | wind direction | speed MPH | gust MPH | rain 1hr in | rain 24hr in | rain mn in | humidity % | barometer mb |
| 20260506204811 | 59 | 209 | 7.0 | 14.0 | 0.00 | 0.00 | 0.00 | 80 | 1017.0 |
| 20260506204311 | 59 | 196 | 6.0 | 12.0 | 0.00 | 0.00 | 0.00 | 79 | 1016.9 |
| 20260506203811 | 59 | 184 | 6.0 | 10.0 | 0.00 | 0.00 | 0.00 | 80 | 1017.0 |
| 20260506203315 | 59 | 185 | 6.0 | 11.0 | 0.00 | 0.00 | 0.00 | 80 | 1017.1 |
| 20260506203311 | 59 | 221 | 6.0 | 10.0 | 0.00 | 0.00 | 0.00 | 79 | 1017.1 |
| 20260506202311 | 59 | 237 | 7.0 | 11.0 | 0.00 | 0.00 | 0.00 | 80 | 1017.2 |
| 20260506201807 | 59 | 220 | 6.0 | 10.0 | 0.00 | 0.00 | 0.00 | 82 | 1017.2 |
| 20260506201308 | 58 | 184 | 6.0 | 12.0 | 0.00 | 0.00 | 0.00 | 83 | 1017.3 |
| 20260506200808 | 58 | 210 | 5.0 | 12.0 | 0.00 | 0.00 | 0.00 | 83 | 1017.3 |
| 20260506200307 | 58 | 194 | 6.0 | 12.0 | 0.00 | 0.00 | 0.00 | 83 | 1017.3 |
| 20260506195808 | 58 | 188 | 7.0 | 12.0 | 0.00 | 0.00 | 0.00 | 83 | 1017.4 |
| 20260506195306 | 58 | 190 | 6.0 | 12.0 | 0.00 | 0.00 | 0.00 | 82 | 1017.4 |
| 20260506194812 | 58 | 202 | 6.0 | 11.0 | 0.00 | 0.00 | 0.00 | 84 | 1017.4 |
| 20260506194807 | 58 | 196 | 6.0 | 10.0 | 0.00 | 0.00 | 0.00 | 83 | 1017.4 |
| 20260506193811 | 58 | 195 | 6.0 | 12.0 | 0.00 | 0.00 | 0.00 | 83 | 1017.5 |
| 20260506193805 | 57 | 194 | 6.0 | 11.0 | 0.00 | 0.00 | 0.00 | 84 | 1017.4 |
| 20260506192812 | 58 | 209 | 6.0 | 11.0 | 0.00 | 0.00 | 0.00 | 82 | 1017.5 |
| 20260506192806 | 57 | 186 | 6.0 | 12.0 | 0.00 | 0.00 | 0.00 | 83 | 1017.5 |
| 20260506191805 | 58 | 182 | 6.0 | 11.0 | 0.00 | 0.00 | 0.00 | 82 | 1017.5 |
| 20260506191306 | 58 | 191 | 5.0 | 11.0 | 0.00 | 0.00 | 0.00 | 82 | 1017.7 |
| 20260506190806 | 58 | 200 | 6.0 | 11.0 | 0.00 | 0.00 | 0.00 | 83 | 1017.8 |
| 20260506190305 | 58 | 192 | 5.0 | 10.0 | 0.00 | 0.00 | 0.00 | 81 | 1017.7 |
| 20260506185806 | 59 | 192 | 4.0 | 10.0 | 0.00 | 0.00 | 0.00 | 84 | 1017.9 |
| 20260506185307 | 57 | 205 | 5.0 | 10.0 | 0.00 | 0.00 | 0.00 | 84 | 1017.9 |
| 20260506184805 | 57 | 209 | 6.0 | 11.0 | 0.00 | 0.00 | 0.00 | 85 | 1017.8 |
| 20260506184312 | 57 | 206 | 6.0 | 10.0 | 0.00 | 0.00 | 0.00 | 85 | 1017.8 |
| 20260506184306 | 57 | 193 | 6.0 | 11.0 | 0.00 | 0.00 | 0.00 | 83 | 1017.8 |
| 20260506183305 | 57 | 217 | 6.0 | 10.0 | 0.00 | 0.00 | 0.00 | 84 | 1017.8 |
| 20260506182805 | 57 | 193 | 5.0 | 9.0 | 0.00 | 0.00 | 0.00 | 83 | 1017.8 |
| 20260506182307 | 57 | 197 | 4.0 | 9.0 | 0.00 | 0.00 | 0.00 | 82 | 1017.9 |
| 20260506181806 | 58 | 196 | 5.0 | 9.0 | 0.00 | 0.00 | 0.00 | 82 | 1017.9 |
| 20260506181306 | 58 | 200 | 4.0 | 8.0 | 0.00 | 0.00 | 0.00 | 83 | 1017.9 |
| 20260506180804 | 58 | 201 | 3.0 | 8.0 | 0.00 | 0.00 | 0.00 | 82 | 1017.9 |
| 20260506180304 | 58 | 146 | 4.0 | 8.0 | 0.00 | 0.00 | 0.00 | 82 | 1017.9 |
| 20260506175804 | 58 | 215 | 5.0 | 10.0 | 0.00 | 0.00 | 0.00 | 84 | 1018.0 |
| 20260506175306 | 58 | 139 | 5.0 | 10.0 | 0.00 | 0.00 | 0.00 | 84 | 1018.0 |
| 20260506174808 | 56 | 143 | 4.0 | 8.0 | 0.00 | 0.00 | 0.00 | 86 | 1017.9 |
| 20260506174804 | 57 | 135 | 4.0 | 8.0 | 0.00 | 0.00 | 0.00 | 86 | 1017.9 |
| 20260506173804 | 56 | 124 | 4.0 | 8.0 | 0.00 | 0.00 | 0.00 | 88 | 1017.7 |
| 20260506173303 | 56 | 191 | 5.0 | 9.0 | 0.00 | 0.00 | 0.00 | 88 | 1017.8 |
| 20260506172803 | 56 | 153 | 4.0 | 9.0 | 0.00 | 0.00 | 0.00 | 88 | 1017.7 |
| 20260506172301 | 56 | 173 | 4.0 | 8.0 | 0.00 | 0.00 | 0.00 | 88 | 1017.8 |
| 20260506171801 | 56 | 174 | 4.0 | 8.0 | 0.00 | 0.00 | 0.00 | 88 | 1017.8 |
| 20260506171301 | 56 | 150 | 3.0 | 8.0 | 0.00 | 0.00 | 0.00 | 88 | 1017.7 |
| 20260506170805 | 56 | 165 | 3.0 | 8.0 | 0.00 | 0.00 | 0.00 | 86 | 1017.7 |
| 20260506170801 | 56 | 138 | 4.0 | 8.0 | 0.00 | 0.00 | 0.00 | 87 | 1017.7 |
| 20260506165801 | 57 | 128 | 2.0 | 6.0 | 0.00 | 0.00 | 0.00 | 85 | 1017.7 |
| 20260506165305 | 57 | 118 | 1.0 | 5.0 | 0.00 | 0.00 | 0.00 | 86 | 1017.5 |
| 20260506164801 | 57 | 167 | 2.0 | 7.0 | 0.00 | 0.00 | 0.00 | 86 | 1017.5 |
| 20260506164301 | 57 | 175 | 2.0 | 7.0 | 0.00 | 0.00 | 0.00 | 87 | 1017.4 |
| 20260506163803 | 56 | 140 | 2.0 | 7.0 | 0.00 | 0.00 | 0.00 | 85 | 1017.5 |
| 20260506163759 | 56 | 134 | 3.0 | 7.0 | 0.00 | 0.00 | 0.00 | 87 | 1017.5 |
| 20260506163259 | 56 | 158 | 3.0 | 7.0 | 0.00 | 0.00 | 0.00 | 87 | 1017.4 |
| 20260506162259 | 56 | 185 | 2.0 | 6.0 | 0.00 | 0.00 | 0.00 | 84 | 1017.5 |
| 20260506161759 | 56 | 122 | 2.0 | 7.0 | 0.00 | 0.00 | 0.00 | 84 | 1017.5 |
| 20260506161259 | 57 | 120 | 3.0 | 7.0 | 0.00 | 0.00 | 0.00 | 82 | 1017.5 |
| 20260506160759 | 57 | 77 | 3.0 | 7.0 | 0.00 | 0.00 | 0.00 | 81 | 1017.4 |
| 20260506160257 | 57 | 142 | 3.0 | 7.0 | 0.00 | 0.00 | 0.00 | 81 | 1017.4 |
| 20260506155757 | 57 | 74 | 2.0 | 7.0 | 0.00 | 0.00 | 0.00 | 80 | 1017.4 |
| 20260506155257 | 57 | 142 | 2.0 | 7.0 | 0.00 | 0.00 | 0.00 | 80 | 1017.4 |
| 20260506154801 | 57 | 141 | 3.0 | 8.0 | 0.00 | 0.00 | 0.00 | 80 | 1017.4 |
| 20260506154757 | 57 | 130 | 2.0 | 7.0 | 0.00 | 0.00 | 0.00 | 80 | 1017.4 |
| 20260506154404 | 57 | 73 | 3.0 | 8.0 | 0.00 | 0.00 | 0.00 | 80 | 1017.4 |
| 20260506153301 | 56 | 96 | 1.0 | 6.0 | 0.00 | 0.00 | 0.00 | 80 | 1017.4 |
| 20260506153257 | 56 | 73 | 2.0 | 7.0 | 0.00 | 0.00 | 0.00 | 81 | 1017.4 |
| 20260506152904 | 56 | 133 | 1.0 | 5.0 | 0.00 | 0.00 | 0.00 | 80 | 1017.3 |
| 20260506151757 | 56 | 124 | 2.0 | 6.0 | 0.00 | 0.00 | 0.00 | 79 | 1017.3 |
| 20260506151255 | 56 | 122 | 3.0 | 6.0 | 0.00 | 0.00 | 0.00 | 79 | 1017.3 |
| 20260506150755 | 56 | 132 | 2.0 | 6.0 | 0.00 | 0.00 | 0.00 | 78 | 1017.3 |
| 20260506150304 | 57 | 126 | 0.0 | 6.0 | 0.00 | 0.00 | 0.00 | 75 | 1017.3 |
| 20260506145755 | 56 | 128 | 0.0 | 3.0 | 0.00 | 0.00 | 0.00 | 75 | 1017.3 |
| 20260506145256 | 56 | 124 | 0.0 | 3.0 | 0.00 | 0.00 | 0.00 | 73 | 1017.3 |
| 20260506144759 | 56 | 163 | 1.0 | 4.0 | 0.00 | 0.00 | 0.00 | 74 | 1017.3 |
| 20260506144755 | 56 | 164 | 0.0 | 3.0 | 0.00 | 0.00 | 0.00 | 73 | 1017.4 |
| 20260506143754 | 56 | 135 | 0.0 | 4.0 | 0.00 | 0.00 | 0.00 | 74 | 1017.3 |
| 20260506143255 | 56 | 162 | 0.0 | 2.0 | 0.00 | 0.00 | 0.00 | 72 | 1017.3 |
| 20260506142755 | 55 | 162 | 0.0 | 0.0 | 0.00 | 0.00 | 0.00 | 74 | 1017.4 |
| 20260506142255 | 55 | 162 | 0.0 | 0.0 | 0.00 | 0.00 | 0.00 | 74 | 1017.3 |
| 20260506141755 | 54 | 162 | 0.0 | 0.0 | 0.00 | 0.00 | 0.00 | 75 | 1017.2 |
| 20260506141254 | 54 | 162 | 0.0 | 0.0 | 0.00 | 0.00 | 0.00 | 76 | 1017.2 |
| 20260506140755 | 53 | 162 | 0.0 | 1.0 | 0.00 | 0.00 | 0.00 | 77 | 1017.2 |
| 20260506140254 | 53 | 162 | 0.0 | 1.0 | 0.00 | 0.00 | 0.00 | 77 | 1017.1 |
| 20260506135755 | 53 | 162 | 0.0 | 0.0 | 0.00 | 0.00 | 0.00 | 78 | 1017.1 |
| 20260506135255 | 53 | 162 | 0.0 | 0.0 | 0.00 | 0.00 | 0.00 | 78 | 1017.1 |
| 20260506134759 | 53 | 162 | 0.0 | 0.0 | 0.00 | 0.00 | 0.00 | 76 | 1017.0 |
| 20260506134755 | 53 | 162 | 0.0 | 0.0 | 0.00 | 0.00 | 0.00 | 77 | 1017.0 |
| 20260506133753 | 53 | 162 | 0.0 | 0.0 | 0.00 | 0.00 | 0.00 | 76 | 1017.0 |
| 20260506133256 | 53 | 162 | 0.0 | 1.0 | 0.00 | 0.00 | 0.00 | 77 | 1017.0 |
| 20260506133252 | 53 | 162 | 0.0 | 1.0 | 0.00 | 0.00 | 0.00 | 76 | 1017.0 |
| 20260506132252 | 53 | 162 | 0.0 | 1.0 | 0.00 | 0.00 | 0.00 | 77 | 1016.9 |
| 20260506131758 | 52 | 162 | 1.0 | 4.0 | 0.00 | 0.00 | 0.00 | 78 | 1016.9 |
| 20260506131753 | 53 | 162 | 0.0 | 3.0 | 0.00 | 0.00 | 0.00 | 78 | 1017.0 |
| 20260506131401 | 52 | 157 | 1.0 | 4.0 | 0.00 | 0.00 | 0.00 | 78 | 1016.8 |
| 20260506130252 | 53 | 162 | 1.0 | 3.0 | 0.00 | 0.00 | 0.00 | 78 | 1016.8 |
| 20260506125751 | 53 | 158 | 1.0 | 3.0 | 0.00 | 0.00 | 0.00 | 78 | 1016.7 |
| 20260506125251 | 53 | 144 | 1.0 | 3.0 | 0.00 | 0.00 | 0.00 | 77 | 1016.7 |
| 20260506124751 | 52 | 140 | 0.0 | 2.0 | 0.00 | 0.00 | 0.00 | 78 | 1016.7 |
| 20260506124251 | 52 | 142 | 0.0 | 2.0 | 0.00 | 0.00 | 0.00 | 78 | 1016.7 |
| 20260506123751 | 53 | 142 | 0.0 | 2.0 | 0.00 | 0.00 | 0.00 | 78 | 1016.6 |
| 20260506123251 | 53 | 142 | 1.0 | 4.0 | 0.00 | 0.00 | 0.00 | 78 | 1016.6 |
| 20260506122752 | 53 | 141 | 2.0 | 4.0 | 0.00 | 0.00 | 0.00 | 77 | 1016.5 |
| 20260506122256 | 53 | 134 | 2.0 | 4.0 | 0.00 | 0.00 | 0.00 | 77 | 1016.4 |
| 20260506122252 | 53 | 135 | 3.0 | 4.0 | 0.00 | 0.00 | 0.00 | 77 | 1016.4 |
| 20260506121858 | 53 | 130 | 1.0 | 2.0 | 0.00 | 0.00 | 0.00 | 77 | 1016.4 |
| 20260506121326 | 53 | 130 | 1.0 | 2.0 | 0.00 | 0.00 | 0.00 | 77 | 1016.4 |
| 20260506121252 | 53 | 134 | 1.0 | 4.0 | 0.00 | 0.00 | 0.00 | 77 | 1016.4 |
| 20260506120251 | 53 | 138 | 0.0 | 5.0 | 0.00 | 0.00 | 0.00 | 77 | 1016.5 |
| 20260506115751 | 53 | 146 | 1.0 | 5.0 | 0.00 | 0.00 | 0.00 | 77 | 1016.4 |
| 20260506115255 | 53 | 155 | 3.0 | 5.0 | 0.00 | 0.00 | 0.00 | 77 | 1016.3 |
| 20260506115251 | 53 | 156 | 2.0 | 5.0 | 0.00 | 0.00 | 0.00 | 77 | 1016.4 |
| 20260506114859 | 53 | 153 | 3.0 | 5.0 | 0.00 | 0.00 | 0.00 | 77 | 1016.3 |
| 20260506113751 | 53 | 147 | 4.0 | 5.0 | 0.00 | 0.00 | 0.00 | 77 | 1016.3 |
| 20260506113251 | 53 | 136 | 3.0 | 4.0 | 0.00 | 0.00 | 0.00 | 77 | 1016.3 |
| 20260506112751 | 53 | 134 | 3.0 | 4.0 | 0.00 | 0.00 | 0.00 | 77 | 1016.3 |
| 20260506112251 | 53 | 136 | 3.0 | 4.0 | 0.00 | 0.00 | 0.00 | 77 | 1016.3 |
| 20260506111755 | 53 | 142 | 2.0 | 3.0 | 0.00 | 0.00 | 0.00 | 77 | 1016.2 |
| 20260506111751 | 53 | 146 | 2.0 | 4.0 | 0.00 | 0.00 | 0.00 | 77 | 1016.2 |
| 20260506110751 | 53 | 137 | 2.0 | 3.0 | 0.00 | 0.00 | 0.00 | 78 | 1016.2 |
| 20260506110248 | 53 | 137 | 3.0 | 5.0 | 0.00 | 0.00 | 0.00 | 77 | 1016.2 |
| 20260506105748 | 53 | 137 | 4.0 | 5.0 | 0.00 | 0.00 | 0.00 | 77 | 1016.3 |
| 20260506105248 | 53 | 138 | 4.0 | 5.0 | 0.00 | 0.00 | 0.00 | 76 | 1016.3 |
| 20260506104747 | 53 | 141 | 3.0 | 5.0 | 0.00 | 0.00 | 0.00 | 77 | 1016.3 |
| 20260506104247 | 53 | 131 | 2.0 | 4.0 | 0.00 | 0.00 | 0.00 | 78 | 1016.3 |
| 20260506103745 | 53 | 129 | 1.0 | 3.0 | 0.00 | 0.00 | 0.00 | 80 | 1016.3 |
| 20260506103244 | 52 | 85 | 0.0 | 1.0 | 0.00 | 0.00 | 0.00 | 80 | 1016.3 |
| 20260506102744 | 52 | 85 | 0.0 | 2.0 | 0.00 | 0.00 | 0.00 | 80 | 1016.3 |
| 20260506102244 | 52 | 85 | 0.0 | 2.0 | 0.00 | 0.00 | 0.00 | 81 | 1016.3 |
| 20260506101744 | 52 | 85 | 0.0 | 2.0 | 0.00 | 0.00 | 0.00 | 82 | 1016.3 |
| 20260506101244 | 52 | 85 | 0.0 | 2.0 | 0.00 | 0.00 | 0.00 | 82 | 1016.3 |
| 20260506100744 | 52 | 85 | 1.0 | 3.0 | 0.00 | 0.00 | 0.00 | 83 | 1016.3 |
| 20260506100244 | 52 | 85 | 1.0 | 3.0 | 0.00 | 0.00 | 0.00 | 83 | 1016.3 |
| 20260506095744 | 52 | 85 | 1.0 | 3.0 | 0.00 | 0.00 | 0.00 | 83 | 1016.3 |
| 20260506095247 | 52 | 109 | 1.0 | 2.0 | 0.00 | 0.00 | 0.00 | 83 | 1016.4 |
| 20260506095242 | 52 | 143 | 1.0 | 2.0 | 0.00 | 0.00 | 0.00 | 82 | 1016.4 |
| 20260506094242 | 52 | 109 | 0.0 | 2.0 | 0.00 | 0.00 | 0.00 | 82 | 1016.4 |
| 20260506093746 | 52 | 109 | 0.0 | 2.0 | 0.00 | 0.00 | 0.00 | 82 | 1016.5 |
| 20260506093742 | 52 | 109 | 0.0 | 2.0 | 0.00 | 0.00 | 0.00 | 82 | 1016.5 |
| 20260506092742 | 52 | 109 | 1.0 | 3.0 | 0.00 | 0.00 | 0.00 | 81 | 1016.4 |
| 20260506092242 | 53 | 109 | 2.0 | 4.0 | 0.00 | 0.00 | 0.00 | 82 | 1016.4 |
| 20260506091742 | 53 | 109 | 1.0 | 4.0 | 0.00 | 0.00 | 0.00 | 81 | 1016.4 |
| 20260506091242 | 53 | 109 | 1.0 | 3.0 | 0.00 | 0.00 | 0.00 | 81 | 1016.4 |
| 20260506090742 | 53 | 109 | 1.0 | 3.0 | 0.00 | 0.00 | 0.00 | 81 | 1016.5 |
| 20260506090240 | 53 | 109 | 1.0 | 3.0 | 0.00 | 0.00 | 0.00 | 80 | 1016.5 |
| 20260506085740 | 53 | 109 | 1.0 | 3.0 | 0.00 | 0.00 | 0.00 | 80 | 1016.6 |
| 20260506085240 | 53 | 109 | 1.0 | 3.0 | 0.00 | 0.00 | 0.00 | 80 | 1016.6 |
| 20260506084740 | 53 | 109 | 0.0 | 2.0 | 0.00 | 0.00 | 0.00 | 80 | 1016.7 |
| 20260506084240 | 53 | 109 | 1.0 | 4.0 | 0.00 | 0.00 | 0.00 | 80 | 1016.7 |
| 20260506083740 | 53 | 109 | 2.0 | 4.0 | 0.00 | 0.00 | 0.00 | 80 | 1016.8 |
| 20260506083244 | 52 | 111 | 2.0 | 4.0 | 0.00 | 0.00 | 0.00 | 81 | 1016.8 |
| 20260506083240 | 53 | 109 | 2.0 | 4.0 | 0.00 | 0.00 | 0.00 | 80 | 1016.7 |
| 20260506082847 | 52 | 111 | 1.0 | 4.0 | 0.00 | 0.00 | 0.00 | 81 | 1016.8 |
| 20260506081741 | 52 | 127 | 1.0 | 4.0 | 0.00 | 0.00 | 0.00 | 81 | 1016.8 |
| 20260506081238 | 52 | 146 | 0.0 | 0.0 | 0.00 | 0.00 | 0.00 | 82 | 1016.8 |
| 20260506080742 | 52 | 146 | 0.0 | 0.0 | 0.00 | 0.00 | 0.00 | 82 | 1016.8 |
| 20260506080738 | 52 | 146 | 0.0 | 0.0 | 0.00 | 0.00 | 0.00 | 82 | 1016.8 |
| 20260506080345 | 52 | 146 | 0.0 | 0.0 | 0.00 | 0.00 | 0.00 | 82 | 1016.9 |
| 20260506073236 | 52 | 146 | 0.0 | 0.0 | 0.00 | 0.00 | 0.00 | 83 | 1016.9 |
| 20260506072734 | 53 | 146 | 0.0 | 2.0 | 0.00 | 0.00 | 0.00 | 84 | 1016.8 |
| 20260506072233 | 53 | 146 | 0.0 | 2.0 | 0.00 | 0.00 | 0.00 | 83 | 1016.9 |
| 20260506071734 | 53 | 146 | 0.0 | 3.0 | 0.00 | 0.00 | 0.00 | 83 | 1016.8 |
| 20260506071234 | 53 | 148 | 2.0 | 4.0 | 0.00 | 0.00 | 0.00 | 82 | 1016.7 |
| 20260506070733 | 53 | 200 | 3.0 | 4.0 | 0.00 | 0.00 | 0.00 | 81 | 1016.7 |
| 20260506070238 | 53 | 192 | 3.0 | 5.0 | 0.00 | 0.00 | 0.00 | 81 | 1016.5 |
| 20260506070234 | 53 | 206 | 3.0 | 4.0 | 0.00 | 0.00 | 0.00 | 81 | 1016.5 |
| 20260506062231 | 53 | 237 | 5.0 | 10.0 | 0.00 | 0.00 | 0.00 | 80 | 1016.2 |
| 20260506061730 | 53 | 225 | 6.0 | 10.0 | 0.00 | 0.00 | 0.00 | 79 | 1016.3 |
| 20260506061230 | 53 | 229 | 5.0 | 10.0 | 0.00 | 0.00 | 0.00 | 80 | 1016.2 |
| 20260506060729 | 53 | 252 | 4.0 | 10.0 | 0.00 | 0.00 | 0.00 | 80 | 1016.2 |
| 20260506060229 | 53 | 239 | 4.0 | 8.0 | 0.00 | 0.00 | 0.00 | 80 | 1016.0 |
| 20260506050731 | 54 | 214 | 5.0 | 8.0 | 0.00 | 0.00 | 0.00 | 78 | 1015.8 |
| 20260506050726 | 54 | 201 | 5.0 | 8.0 | 0.00 | 0.00 | 0.00 | 77 | 1015.8 |
| 20260506044723 | 54 | 192 | 6.0 | 8.0 | 0.00 | 0.00 | 0.00 | 77 | 1015.6 |
| 20260506044223 | 54 | 192 | 6.0 | 8.0 | 0.00 | 0.00 | 0.00 | 78 | 1015.4 |
| 20260506043728 | 54 | 192 | 6.0 | 7.0 | 0.00 | 0.00 | 0.00 | 80 | 1015.4 |
| 20260506043724 | 54 | 193 | 6.0 | 7.0 | 0.00 | 0.00 | 0.00 | 78 | 1015.4 |
| 20260506042727 | 54 | 184 | 7.0 | 8.0 | 0.00 | 0.00 | 0.00 | 80 | 1015.3 |
| 20260506042723 | 54 | 192 | 6.0 | 8.0 | 0.00 | 0.00 | 0.00 | 80 | 1015.4 |
| 20260506041723 | 54 | 189 | 7.0 | 8.0 | 0.00 | 0.00 | 0.00 | 80 | 1015.2 |
| 20260506041223 | 54 | 198 | 6.0 | 7.0 | 0.00 | 0.00 | 0.00 | 80 | 1015.2 |
| 20260506040727 | 54 | 202 | 4.0 | 6.0 | 0.00 | 0.00 | 0.00 | 79 | 1015.2 |
| 20260506040723 | 54 | 198 | 5.0 | 7.0 | 0.00 | 0.00 | 0.00 | 80 | 1015.2 |
| 20260506035720 | 54 | 217 | 3.0 | 5.0 | 0.00 | 0.00 | 0.00 | 80 | 1015.2 |
| 20260506035221 | 54 | 236 | 3.0 | 4.0 | 0.00 | 0.00 | 0.00 | 81 | 1015.1 |
| 20260506034721 | 54 | 239 | 2.0 | 3.0 | 0.00 | 0.00 | 0.00 | 81 | 1015.1 |
| 20260506034221 | 54 | 239 | 2.0 | 3.0 | 0.00 | 0.00 | 0.00 | 80 | 1015.0 |
| 20260506033721 | 54 | 239 | 2.0 | 4.0 | 0.00 | 0.00 | 0.00 | 79 | 1014.9 |
| 20260506033221 | 54 | 242 | 3.0 | 5.0 | 0.00 | 0.00 | 0.00 | 79 | 1014.8 |
| 20260506032721 | 54 | 242 | 4.0 | 5.0 | 0.00 | 0.00 | 0.00 | 78 | 1014.8 |
| 20260506032220 | 54 | 239 | 4.0 | 6.0 | 0.00 | 0.00 | 0.00 | 78 | 1014.6 |
| 20260506031720 | 54 | 251 | 4.0 | 6.0 | 0.00 | 0.00 | 0.00 | 78 | 1014.5 |
| 20260506031221 | 55 | 200 | 2.0 | 6.0 | 0.00 | 0.00 | 0.00 | 77 | 1014.4 |
| 20260506030721 | 55 | 134 | 2.0 | 10.0 | 0.00 | 0.00 | 0.00 | 77 | 1014.4 |
| 20260506030221 | 55 | 249 | 4.0 | 10.0 | 0.00 | 0.00 | 0.00 | 76 | 1014.3 |
| 20260506025721 | 55 | 271 | 6.0 | 10.0 | 0.00 | 0.00 | 0.00 | 76 | 1014.3 |
| 20260506025220 | 55 | 267 | 7.0 | 10.0 | 0.00 | 0.00 | 0.00 | 77 | 1014.2 |
| 20260506024720 | 54 | 280 | 6.0 | 10.0 | 0.00 | 0.00 | 0.00 | 77 | 1014.1 |
| 20260506024225 | 54 | 286 | 7.0 | 10.0 | 0.00 | 0.00 | 0.00 | 78 | 1014.0 |
| 20260506024220 | 54 | 281 | 7.0 | 10.0 | 0.00 | 0.00 | 0.00 | 78 | 1014.0 |
| 20260506023221 | 54 | 291 | 6.0 | 10.0 | 0.00 | 0.00 | 0.00 | 80 | 1013.9 |
| 20260506022719 | 54 | 297 | 5.0 | 10.0 | 0.00 | 0.00 | 0.00 | 81 | 1013.8 |
| 20260506022219 | 54 | 296 | 5.0 | 10.0 | 0.00 | 0.00 | 0.00 | 80 | 1013.8 |
| 20260506021719 | 55 | 295 | 5.0 | 10.0 | 0.00 | 0.00 | 0.00 | 80 | 1013.8 |
| 20260506021219 | 55 | 289 | 4.0 | 9.0 | 0.00 | 0.00 | 0.00 | 80 | 1013.8 |
| 20260506020719 | 55 | 297 | 4.0 | 9.0 | 0.00 | 0.00 | 0.00 | 80 | 1013.8 |
| 20260506020218 | 55 | 324 | 3.0 | 9.0 | 0.00 | 0.00 | 0.00 | 80 | 1013.7 |
| 20260506015718 | 55 | 250 | 4.0 | 9.0 | 0.00 | 0.00 | 0.00 | 81 | 1013.7 |
| 20260506015218 | 55 | 255 | 3.0 | 9.0 | 0.00 | 0.00 | 0.00 | 83 | 1013.6 |
| 20260506014718 | 54 | 195 | 2.0 | 6.0 | 0.00 | 0.00 | 0.00 | 85 | 1013.7 |
| 20260506014220 | 53 | 215 | 1.0 | 7.0 | 0.00 | 0.00 | 0.00 | 87 | 1013.6 |
| 20260506014216 | 53 | 259 | 1.0 | 6.0 | 0.00 | 0.00 | 0.00 | 86 | 1013.7 |
| 20260506013221 | 52 | 215 | 3.0 | 7.0 | 0.00 | 0.00 | 0.00 | 88 | 1013.7 |
| 20260506013217 | 52 | 198 | 1.0 | 7.0 | 0.00 | 0.00 | 0.00 | 88 | 1013.7 |
| 20260506012823 | 52 | 180 | 4.0 | 7.0 | 0.00 | 0.00 | 0.00 | 87 | 1013.6 |
| 20260506011717 | 53 | 165 | 5.0 | 8.0 | 0.00 | 0.00 | 0.00 | 87 | 1013.7 |
| 20260506011221 | 54 | 203 | 4.0 | 7.0 | 0.00 | 0.00 | 0.00 | 84 | 1013.6 |
| 20260506011217 | 53 | 179 | 5.0 | 8.0 | 0.00 | 0.00 | 0.00 | 86 | 1013.6 |
| 20260506010217 | 54 | 194 | 4.0 | 7.0 | 0.00 | 0.00 | 0.00 | 83 | 1013.6 |
| 20260506005721 | 54 | 184 | 4.0 | 8.0 | 0.00 | 0.00 | 0.00 | 84 | 1013.6 |
| 20260506005717 | 54 | 173 | 4.0 | 7.0 | 0.00 | 0.00 | 0.00 | 84 | 1013.6 |
| 20260506004716 | 53 | 201 | 5.0 | 8.0 | 0.00 | 0.00 | 0.00 | 85 | 1013.5 |
| 20260506004221 | 52 | 198 | 3.0 | 5.0 | 0.00 | 0.00 | 0.00 | 89 | 1013.4 |
| 20260506004217 | 53 | 193 | 4.0 | 7.0 | 0.00 | 0.00 | 0.00 | 88 | 1013.5 |
| 20260506003217 | 52 | 211 | 3.0 | 5.0 | 0.00 | 0.00 | 0.00 | 89 | 1013.4 |
| 20260506002720 | 52 | 222 | 4.0 | 6.0 | 0.00 | 0.00 | 0.00 | 91 | 1013.5 |
| 20260506002716 | 52 | 216 | 3.0 | 5.0 | 0.00 | 0.00 | 0.00 | 91 | 1013.4 |
| 20260506001717 | 52 | 220 | 4.0 | 6.0 | 0.00 | 0.00 | 0.00 | 91 | 1013.5 |
| 20260506001216 | 52 | 218 | 4.0 | 6.0 | 0.00 | 0.00 | 0.00 | 91 | 1013.4 |
| 20260506000716 | 52 | 217 | 4.0 | 8.0 | 0.00 | 0.00 | 0.00 | 91 | 1013.4 |
| 20260506000214 | 52 | 205 | 4.0 | 8.0 | 0.00 | 0.00 | 0.00 | 91 | 1013.4 |
| 20260505235714 | 52 | 192 | 5.0 | 8.0 | 0.00 | 0.00 | 0.00 | 91 | 1013.2 |
| 20260505235213 | 51 | 190 | 5.0 | 8.0 | 0.00 | 0.00 | 0.00 | 91 | 1013.4 |
| 20260505234714 | 51 | 196 | 5.0 | 8.0 | 0.00 | 0.00 | 0.00 | 90 | 1013.2 |
| 20260505234214 | 51 | 191 | 6.0 | 11.0 | 0.00 | 0.00 | 0.00 | 90 | 1013.4 |
| 20260505233718 | 53 | 201 | 8.0 | 16.0 | 0.00 | 0.00 | 0.00 | 88 | 1013.4 |
| 20260505233714 | 52 | 182 | 7.0 | 12.0 | 0.00 | 0.00 | 0.00 | 89 | 1013.2 |
| 20260505232716 | 54 | 197 | 9.0 | 16.0 | 0.00 | 0.00 | 0.00 | 87 | 1013.2 |
| 20260505232712 | 54 | 186 | 9.0 | 15.0 | 0.00 | 0.00 | 0.00 | 87 | 1013.2 |
| 20260505232319 | 54 | 184 | 9.0 | 16.0 | 0.00 | 0.00 | 0.00 | 87 | 1013.2 |
| 20260505231212 | 54 | 178 | 9.0 | 16.0 | 0.00 | 0.00 | 0.00 | 87 | 1013.2 |
| 20260505230712 | 54 | 188 | 9.0 | 14.0 | 0.00 | 0.00 | 0.00 | 86 | 1013.2 |
| 20260505230212 | 54 | 169 | 9.0 | 14.0 | 0.00 | 0.00 | 0.00 | 86 | 1013.2 |
| 20260505225712 | 54 | 213 | 9.0 | 15.0 | 0.00 | 0.00 | 0.00 | 86 | 1013.4 |
| 20260505225213 | 53 | 191 | 10.0 | 16.0 | 0.00 | 0.00 | 0.00 | 87 | 1013.4 |
| 20260505224712 | 53 | 167 | 10.0 | 18.0 | 0.00 | 0.00 | 0.00 | 86 | 1013.4 |
| 20260505224213 | 54 | 157 | 10.0 | 18.0 | 0.00 | 0.00 | 0.00 | 84 | 1013.2 |
| 20260505223716 | 56 | 186 | 11.0 | 18.0 | 0.00 | 0.00 | 0.00 | 83 | 1013.2 |
| 20260505223712 | 56 | 171 | 10.0 | 18.0 | 0.00 | 0.00 | 0.00 | 83 | 1013.4 |
| 20260505222711 | 56 | 180 | 10.0 | 18.0 | 0.00 | 0.00 | 0.00 | 82 | 1013.4 |
| 20260505222211 | 56 | 169 | 10.0 | 18.0 | 0.00 | 0.00 | 0.00 | 82 | 1013.4 |
| 20260505221711 | 55 | 177 | 9.0 | 18.0 | 0.00 | 0.00 | 0.00 | 82 | 1013.6 |
| 20260505221211 | 54 | 199 | 8.0 | 14.0 | 0.00 | 0.00 | 0.00 | 85 | 1013.5 |
| 20260505220711 | 54 | 155 | 7.0 | 14.0 | 0.00 | 0.00 | 0.00 | 86 | 1013.6 |
| 20260505220211 | 53 | 184 | 7.0 | 12.0 | 0.00 | 0.00 | 0.00 | 85 | 1013.7 |
| 20260505215711 | 52 | 211 | 8.0 | 14.0 | 0.00 | 0.00 | 0.00 | 84 | 1013.7 |
| 20260505215211 | 51 | 205 | 9.0 | 14.0 | 0.00 | 0.00 | 0.00 | 84 | 1013.7 |
| 20260505214712 | 51 | 220 | 10.0 | 14.0 | 0.00 | 0.00 | 0.00 | 85 | 1013.8 |
| 20260505214211 | 50 | 202 | 10.0 | 13.0 | 0.00 | 0.00 | 0.00 | 87 | 1013.7 |
| 20260505213711 | 50 | 209 | 10.0 | 12.0 | 0.00 | 0.00 | 0.00 | 88 | 1013.8 |
| 20260505213208 | 50 | 201 | 9.0 | 12.0 | 0.00 | 0.00 | 0.00 | 88 | 1013.8 |
| 20260505212708 | 50 | 209 | 9.0 | 12.0 | 0.00 | 0.00 | 0.00 | 89 | 1013.9 |
| 20260505212214 | 51 | 196 | 10.0 | 12.0 | 0.00 | 0.00 | 0.00 | 85 | 1013.9 |
| 20260505212208 | 51 | 200 | 9.0 | 12.0 | 0.00 | 0.00 | 0.00 | 87 | 1013.9 |
| 20260505211815 | 51 | 199 | 9.0 | 12.0 | 0.00 | 0.00 | 0.00 | 83 | 1014.0 |
| 20260505211315 | 52 | 205 | 9.0 | 12.0 | 0.00 | 0.00 | 0.00 | 82 | 1014.0 |
| 20260505210208 | 52 | 190 | 9.0 | 13.0 | 0.00 | 0.00 | 0.00 | 80 | 1013.9 |
| 20260505205708 | 52 | 194 | 10.0 | 16.0 | 0.00 | 0.00 | 0.00 | 81 | 1013.9 |
| 20260505205208 | 53 | 175 | 11.0 | 17.0 | 0.00 | 0.00 | 0.00 | 81 | 1013.9 |